Location: Peach Mountain Observatory
(42.3967°N, 83.9367°W)
Time: 15:21:32
(UTC-05:00)

Vanguard 2 - All Passes

Search period start: 25 January 2020 00:00
Search period end: 04 February 2020 00:00
Orbit: 553 x 2938 km, 32.9° (Epoch: 25 January)

Date Brightness Start Highest point End Pass type
(mag) Time Alt. Az. Time Alt. Az. Time Alt. Az.
25 Jan - 08:26:15 10° S 08:33:25 15° SSE 08:39:34 10° ESE daylight
25 Jan - 10:31:41 10° SW 10:43:29 32° SSE 10:51:34 10° ESE daylight
25 Jan - 12:42:16 10° WSW 12:53:01 43° S 12:59:39 10° ESE daylight
25 Jan - 14:54:01 10° WSW 15:01:29 34° SSW 15:06:24 10° SE daylight
25 Jan - 17:07:12 10° SW 17:08:37 11° SW 17:09:55 10° SSW daylight
26 Jan - 08:40:58 10° S 08:51:14 20° SSE 08:59:25 10° ESE daylight
26 Jan - 10:48:44 10° SW 11:01:21 37° SSE 11:09:41 10° ESE daylight
26 Jan - 13:00:04 10° WSW 13:10:50 45° S 13:17:25 10° ESE daylight
26 Jan - 15:12:07 10° W 15:19:04 30° SSW 15:23:48 10° SE daylight
27 Jan - 08:56:49 10° SSW 09:09:02 27° SSE 09:18:19 10° ESE daylight
27 Jan - 11:06:05 10° SW 11:19:13 43° S 11:27:39 10° ESE daylight
27 Jan - 13:17:59 10° WSW 13:28:36 45° S 13:35:07 10° ESE daylight
27 Jan - 15:30:21 10° W 15:36:35 24° SSW 15:41:01 10° SSE daylight
28 Jan - 07:09:17 10° SSE 07:16:32 14° SE 07:23:06 10° ESE visible
28 Jan - 09:13:17 10° SSW 09:26:52 33° SSE 09:36:46 10° E daylight
28 Jan - 11:23:40 10° WSW 11:37:05 47° S 11:45:32 10° ESE daylight
28 Jan - 13:35:59 10° W 13:46:20 43° SSW 13:52:44 10° ESE daylight
28 Jan - 15:48:49 10° WSW 15:54:00 19° SW 15:57:55 10° S daylight
29 Jan - 07:23:29 10° S 07:34:13 20° SE 07:43:27 10° ESE visible
29 Jan - 09:30:11 10° SW 09:44:42 39° SSE 09:54:57 10° E daylight
29 Jan - 11:41:25 10° WSW 11:54:56 50° S 12:03:19 10° ESE daylight
29 Jan - 13:54:03 10° W 14:04:01 39° SSW 14:10:15 10° SE daylight
29 Jan - 16:07:49 10° WSW 16:11:18 14° SW 16:14:12 10° S daylight
30 Jan - 07:39:01 10° SSW 07:51:55 26° SSE 08:02:37 10° E daylight
30 Jan - 09:47:24 10° SW 10:02:33 45° SSE 10:12:59 10° E daylight
30 Jan - 11:59:18 10° WSW 12:12:46 52° S 12:21:05 10° ESE daylight
30 Jan - 14:12:12 10° W 14:21:35 34° SSW 14:27:38 10° SE daylight
31 Jan - 05:53:51 10° SSE 05:59:24 12° SE 06:04:44 10° ESE visible
31 Jan - 07:55:15 10° SSW 08:09:38 32° SSE 08:21:14 10° E daylight
31 Jan - 10:04:52 10° WSW 10:20:25 50° S 10:30:55 10° E daylight
31 Jan - 12:17:17 10° WSW 12:30:34 51° S 12:38:46 10° ESE daylight
31 Jan - 14:30:29 10° W 14:39:04 29° SSW 14:44:49 10° SSE daylight
01 Feb - 06:06:55 10° S 06:16:55 18° SE 06:26:18 10° ESE visible
01 Feb - 08:11:58 10° SW 08:27:23 39° SSE 08:39:33 10° E daylight
01 Feb - 10:22:32 10° WSW 10:38:18 53° S 10:48:46 10° ESE daylight
01 Feb - 12:35:20 10° W 12:48:19 48° SSW 12:56:22 10° ESE daylight
01 Feb - 14:48:58 10° W 14:56:25 23° SW 15:01:43 10° SSE daylight
02 Feb - 06:22:00 10° S 06:34:27 24° SE 06:45:55 10° E visible
02 Feb - 08:29:02 10° SW 08:45:11 45° SSE 08:57:40 10° E daylight
02 Feb - 10:40:21 10° WSW 10:56:10 56° S 11:06:35 10° ESE daylight
02 Feb - 12:53:26 10° W 13:05:59 44° SSW 13:13:52 10° SE daylight
02 Feb - 15:07:52 10° WSW 15:13:40 17° SW 15:18:08 10° S daylight
03 Feb - 06:37:58 10° SSW 06:52:01 30° SSE 07:04:48 10° E visible
03 Feb - 08:46:22 10° SW 09:03:01 50° SSE 09:15:41 10° E daylight
03 Feb - 10:58:17 10° WSW 11:14:02 56° S 11:24:19 10° ESE daylight
03 Feb - 13:11:38 10° W 13:23:32 38° SSW 13:31:12 10° SE daylight
03 Feb - 15:27:53 10° WSW 15:30:48 12° SW 15:33:22 10° SSW daylight
